User: anonymous   Login
Location: Hancock Field Station
(44.9202°N, 120.4259°W)
Time: 23:44:19
(UTC-07:00)
Language:

Nadezhda 4 Rocket - Orbit

View from above orbital plane
View from above orbital plane
View from above satellite
View from above satellite

Ground track
Ground track

The orbit data is extracted from the following two-line orbital elements,

1 23180U 94041B   15185.88884662  .00000062  00000-0  45993-4 0  9994
2 23180 082.9470 101.8189 0030342 065.4265 000.5320 13.77896884 54677
Epoch (UTC): 04 July 2015 21:19:56
Eccentricity: 0.0030342
inclination: 82.9470°
perigee height: 949 km
apogee height: 993 km
right ascension of ascending node: 101.8189°
argument of perigee: 65.4265°
revolutions per day: 13.77896884
mean anomaly at epoch: 0.5320°
orbit number at epoch: 5467

The dashed part of the orbit path shows where the satellite is in the earth's shadow,  

DLR